• în România
  • Lista ţărilor
  • Pe 7 zile
  • Temperatura apei
  • Hartă satelitară
  • Meteo pe hartă
  • Widget-uri
  • user-avatar
    Intrare

    Meteo pe oră la Propletkino

    Astăzi, 23 Iulie, Luni

    Timp Temperatura Precipitaţii Vânt Presiune Umiditate
    00:00 +18°C° 0 mm 2 m/s 739 mmHg 98%
    01:00 +18°C° 0 mm 2 m/s 739 mmHg 98%
    02:00 +18°C° 0 mm 2 m/s 739 mmHg 98%
    03:00 +18°C° 0 mm 2 m/s 739 mmHg 98%
    04:00 +18°C° 0 mm 2 m/s 739 mmHg 98%
    05:00 +18°C° 0 mm 2 m/s 740 mmHg 97%
    06:00 +19°C° 0,1 mm 2 m/s 740 mmHg 93%
    07:00 +20°C° 0,1 mm 2 m/s 740 mmHg 88%
    08:00 +21°C° 0,1 mm 3 m/s 740 mmHg 84%
    09:00 +22°C° 0,1 mm 3 m/s 740 mmHg 80%
    10:00 +22°C° 0,1 mm 3 m/s 740 mmHg 76%
    11:00 +24°C° 0,1 mm 3 m/s 740 mmHg 72%
    12:00 +24°C° 0,1 mm 3 m/s 740 mmHg 70%
    13:00 +25°C° 0,1 mm 3 m/s 740 mmHg 68%
    14:00 +25°C° 0,1 mm 3 m/s 740 mmHg 66%
    15:00 +25°C° 0 mm 3 m/s 740 mmHg 67%
    16:00 +25°C° 0 mm 3 m/s 740 mmHg 68%
    17:00 +24°C° 0 mm 3 m/s 740 mmHg 69%
    18:00 +23°C° 0,1 mm 2 m/s 740 mmHg 77%
    19:00 +21°C° 0,1 mm 2 m/s 740 mmHg 84%
    20:00 +19°C° 0,1 mm 2 m/s 741 mmHg 91%
    21:00 +19°C° 0 mm 2 m/s 741 mmHg 93%
    22:00 +18°C° 0 mm 2 m/s 741 mmHg 95%
    23:00 +17°C° 0 mm 2 m/s 741 mmHg 98%

    Mâine, 24 Iulie, Marţi

    Timp Temperatura Precipitaţii Vânt Presiune Umiditate
    00:00 +17°C° 0 mm 2 m/s 741 mmHg 98%
    01:00 +16°C° 0 mm 2 m/s 741 mmHg 98%
    02:00 +16°C° 0 mm 2 m/s 741 mmHg 98%
    03:00 +16°C° 0 mm 2 m/s 741 mmHg 98%
    04:00 +16°C° 0 mm 2 m/s 741 mmHg 97%
    05:00 +16°C° 0 mm 2 m/s 741 mmHg 96%
    06:00 +17°C° 0 mm 2 m/s 741 mmHg 92%
    07:00 +19°C° 0 mm 3 m/s 741 mmHg 88%
    08:00 +20°C° 0 mm 3 m/s 742 mmHg 84%
    09:00 +21°C° 0 mm 3 m/s 742 mmHg 80%
    10:00 +22°C° 0 mm 3 m/s 742 mmHg 76%
    11:00 +24°C° 0 mm 3 m/s 742 mmHg 72%
    12:00 +24°C° 0,2 mm 3 m/s 742 mmHg 72%
    13:00 +24°C° 0,2 mm 3 m/s 742 mmHg 72%
    14:00 +25°C° 0,2 mm 3 m/s 741 mmHg 71%
    15:00 +25°C° 0,2 mm 3 m/s 741 mmHg 73%
    16:00 +24°C° 0,2 mm 3 m/s 741 mmHg 75%
    17:00 +24°C° 0,2 mm 3 m/s 741 mmHg 77%
    18:00 +23°C° 0,1 mm 2 m/s 742 mmHg 82%
    19:00 +21°C° 0,1 mm 2 m/s 742 mmHg 87%
    20:00 +20°C° 0,1 mm 2 m/s 742 mmHg 92%
    21:00 +20°C° 0 mm 2 m/s 742 mmHg 94%
    22:00 +19°C° 0 mm 2 m/s 742 mmHg 95%
    23:00 +20°C° 0 mm 1 m/s 742 mmHg 96%

    Poimâine, 25 Iulie, Miercuri

    Timp Temperatura Precipitaţii Vânt Presiune Umiditate
    00:00 +19°C° 0 mm 2 m/s 742 mmHg 97%
    01:00 +18°C° 0 mm 2 m/s 742 mmHg 97%
    02:00 +18°C° 0 mm 2 m/s 742 mmHg 98%
    03:00 +18°C° 0 mm 2 m/s 742 mmHg 98%
    04:00 +18°C° 0 mm 2 m/s 743 mmHg 98%
    05:00 +18°C° 0 mm 2 m/s 743 mmHg 98%
    06:00 +19°C° 0 mm 2 m/s 743 mmHg 92%
    07:00 +21°C° 0 mm 2 m/s 743 mmHg 87%
    08:00 +24°C° 0 mm 2 m/s 743 mmHg 82%
    09:00 +25°C° 0 mm 2 m/s 743 mmHg 75%
    10:00 +27°C° 0 mm 2 m/s 743 mmHg 69%
    11:00 +28°C° 0 mm 3 m/s 743 mmHg 62%
    12:00 +28°C° 0,7 mm 3 m/s 743 mmHg 67%
    13:00 +28°C° 0,7 mm 3 m/s 743 mmHg 72%
    14:00 +27°C° 0,7 mm 3 m/s 743 mmHg 77%
    15:00 +27°C° 0,3 mm 3 m/s 743 mmHg 76%
    16:00 +27°C° 0,3 mm 3 m/s 743 mmHg 76%
    17:00 +26°C° 0,3 mm 3 m/s 743 mmHg 75%
    18:00 +25°C° 0 mm 2 m/s 744 mmHg 80%
    19:00 +23°C° 0 mm 2 m/s 744 mmHg 84%
    20:00 +21°C° 0 mm 2 m/s 744 mmHg 88%
    21:00 +20°C° 0 mm 2 m/s 744 mmHg 89%
    22:00 +19°C° 0 mm 2 m/s 744 mmHg 90%
    23:00 +18°C° 0 mm 2 m/s 744 mmHg 90%

    26 Iulie, Joi

    Timp Temperatura Precipitaţii Vânt Presiune Umiditate
    00:00 +18°C° 0 mm 2 m/s 744 mmHg 89%
    01:00 +17°C° 0 mm 2 m/s 744 mmHg 88%
    02:00 +17°C° 0 mm 2 m/s 744 mmHg 88%
    03:00 +17°C° 0 mm 3 m/s 744 mmHg 86%
    04:00 +17°C° 0 mm 3 m/s 744 mmHg 84%
    05:00 +17°C° 0 mm 3 m/s 744 mmHg 82%
    06:00 +19°C° 0 mm 3 m/s 744 mmHg 77%
    07:00 +21°C° 0 mm 3 m/s 744 mmHg 72%
    08:00 +22°C° 0 mm 4 m/s 744 mmHg 68%
    09:00 +25°C° 0 mm 4 m/s 744 mmHg 63%
    10:00 +27°C° 0 mm 4 m/s 744 mmHg 58%
    11:00 +29°C° 0 mm 4 m/s 744 mmHg 54%
    12:00 +29°C° 0,2 mm 4 m/s 744 mmHg 52%
    13:00 +30°C° 0,2 mm 4 m/s 744 mmHg 51%
    14:00 +30°C° 0,2 mm 4 m/s 744 mmHg 50%
    15:00 +30°C° 0,1 mm 4 m/s 744 mmHg 53%
    16:00 +29°C° 0,1 mm 4 m/s 744 mmHg 56%
    17:00 +29°C° 0,1 mm 3 m/s 744 mmHg 58%
    18:00 +27°C° 0,4 mm 3 m/s 744 mmHg 67%
    19:00 +25°C° 0,4 mm 3 m/s 745 mmHg 76%
    20:00 +22°C° 0,4 mm 3 m/s 745 mmHg 85%
    21:00 +21°C° 0,2 mm 3 m/s 745 mmHg 87%
    22:00 +21°C° 0,2 mm 3 m/s 745 mmHg 88%
    23:00 +20°C° 0,2 mm 3 m/s 745 mmHg 90%

    27 Iulie, Vineri

    Timp Temperatura Precipitaţii Vânt Presiune Umiditate
    00:00 +20°C° 0,2 mm 3 m/s 745 mmHg 92%
    01:00 +19°C° 0,2 mm 2 m/s 745 mmHg 93%
    02:00 +19°C° 0,2 mm 2 m/s 745 mmHg 95%
    03:00 +19°C° 0 mm 2 m/s 745 mmHg 95%
    04:00 +19°C° 0 mm 2 m/s 745 mmHg 96%
    05:00 +18°C° 0 mm 2 m/s 746 mmHg 96%
    06:00 +20°C° 0 mm 2 m/s 746 mmHg 91%
    07:00 +21°C° 0 mm 2 m/s 746 mmHg 87%
    08:00 +24°C° 0 mm 2 m/s 746 mmHg 83%
    09:00 +25°C° 0 mm 3 m/s 746 mmHg 76%
    10:00 +27°C° 0 mm 3 m/s 747 mmHg 69%
    11:00 +29°C° 0 mm 3 m/s 747 mmHg 62%
    12:00 +29°C° 0 mm 4 m/s 747 mmHg 58%
    13:00 +30°C° 0 mm 4 m/s 747 mmHg 54%
    14:00 +30°C° 0 mm 4 m/s 746 mmHg 50%
    15:00 +30°C° 0,1 mm 4 m/s 747 mmHg 53%
    16:00 +29°C° 0,1 mm 4 m/s 747 mmHg 56%
    17:00 +29°C° 0,1 mm 4 m/s 747 mmHg 59%
    18:00 +28°C° 0,1 mm 3 m/s 747 mmHg 65%
    19:00 +26°C° 0,1 mm 3 m/s 747 mmHg 71%
    20:00 +25°C° 0,1 mm 2 m/s 747 mmHg 76%
    21:00 +24°C° 0 mm 2 m/s 747 mmHg 78%
    22:00 +23°C° 0 mm 2 m/s 748 mmHg 80%
    23:00 +21°C° 0 mm 2 m/s 748 mmHg 82%

    28 Iulie, Sâmbătă

    Timp Temperatura Precipitaţii Vânt Presiune Umiditate
    00:00 +21°C° 0,1 mm 2 m/s 748 mmHg 84%
    01:00 +20°C° 0,1 mm 2 m/s 748 mmHg 87%
    02:00 +20°C° 0,1 mm 2 m/s 748 mmHg 89%
    03:00 +20°C° 0 mm 2 m/s 748 mmHg 90%
    04:00 +20°C° 0 mm 2 m/s 748 mmHg 90%
    05:00 +20°C° 0 mm 2 m/s 748 mmHg 91%
    06:00 +21°C° 0 mm 2 m/s 748 mmHg 84%
    07:00 +24°C° 0 mm 2 m/s 748 mmHg 76%
    08:00 +26°C° 0 mm 2 m/s 749 mmHg 69%
    09:00 +28°C° 0 mm 3 m/s 749 mmHg 61%
    10:00 +29°C° 0 mm 3 m/s 749 mmHg 54%
    11:00 +31°C° 0 mm 3 m/s 749 mmHg 46%
    12:00 +31°C° 0 mm 3 m/s 748 mmHg 45%
    13:00 +31°C° 0 mm 3 m/s 748 mmHg 43%
    14:00 +31°C° 0 mm 3 m/s 748 mmHg 42%
    15:00 +31°C° 0 mm 3 m/s 748 mmHg 46%
    16:00 +30°C° 0 mm 2 m/s 748 mmHg 50%
    17:00 +30°C° 0 mm 2 m/s 748 mmHg 55%
    18:00 +28°C° 0 mm 2 m/s 748 mmHg 62%
    19:00 +26°C° 0 mm 2 m/s 748 mmHg 69%
    20:00 +24°C° 0 mm 2 m/s 748 mmHg 76%
    21:00 +23°C° 0 mm 2 m/s 748 mmHg 78%
    22:00 +22°C° 0 mm 1 m/s 749 mmHg 80%
    23:00 +21°C° 0 mm 1 m/s 749 mmHg 83%
    Arată mai mult